DAL8673 KMCO-KMIA

Flight info

Callsign DAL8673
Flight time 0h 46m
Altitude 19000
Route DDANY3 DDANY CSTAL3
Aircraft B738/M-SDE2E3FGHIRWXY/LB1

Departure

Time 2026-04-26 09:58
Airport Orlando International Airport (KMCO)

Arrival

Time 2026-04-26 10:44
Airport Miami International Airport (KMIA)
Time Latitude Longitude Altitude Speed Heading
2026-04-26 09:38 28.42706 -81.30371 87 ft 0 kts 99°
2026-04-26 09:49 28.42707 -81.30376 87 ft 2 kts 99°
2026-04-26 09:50 28.42709 -81.30393 87 ft 2 kts 99°
2026-04-26 09:50 28.42712 -81.30409 87 ft 1 kts 110°
2026-04-26 09:50 28.42722 -81.30421 87 ft 2 kts 160°
2026-04-26 09:50 28.42732 -81.30423 87 ft 0 kts 190°
2026-04-26 09:51 28.42739 -81.30421 87 ft 1 kts 194°
2026-04-26 09:51 28.42740 -81.30421 87 ft 0 kts 194°
2026-04-26 09:53 28.42722 -81.30425 87 ft 4 kts 191°
2026-04-26 09:53 28.42673 -81.30423 87 ft 8 kts 157°
2026-04-26 09:53 28.42611 -81.30365 87 ft 20 kts 140°
2026-04-26 09:54 28.42485 -81.30183 87 ft 35 kts 115°
2026-04-26 09:54 28.42523 -81.29951 87 ft 32 kts 44°
2026-04-26 09:54 28.42594 -81.29820 87 ft 5 kts 53°
2026-04-26 09:54 28.42671 -81.29784 87 ft 18 kts
2026-04-26 09:55 28.42830 -81.29784 90 ft 27 kts 359°
2026-04-26 09:55 28.43056 -81.29786 90 ft 37 kts 359°
2026-04-26 09:55 28.43303 -81.29783 90 ft 27 kts 359°
2026-04-26 09:55 28.43453 -81.29786 90 ft 17 kts 360°
2026-04-26 09:56 28.43536 -81.29751 90 ft 11 kts 63°
2026-04-26 09:56 28.43551 -81.29678 90 ft 7 kts 86°
2026-04-26 09:56 28.43553 -81.29633 90 ft 6 kts 88°
2026-04-26 09:56 28.43535 -81.29587 90 ft 7 kts 172°
2026-04-26 09:57 28.43526 -81.29587 90 ft 0 kts 181°
2026-04-26 09:57 28.43521 -81.29587 90 ft 8 kts 179°
2026-04-26 09:57 28.43222 -81.29580 90 ft 80 kts 180°
2026-04-26 09:57 28.42434 -81.29578 87 ft 146 kts 180°
2026-04-26 09:58 28.41355 -81.29601 678 ft 158 kts 180°
2026-04-26 09:58 28.40172 -81.29551 1160 ft 193 kts 177°
2026-04-26 09:58 28.38750 -81.29311 1624 ft 222 kts 159°
2026-04-26 09:58 28.37320 -81.28477 2103 ft 238 kts 150°
2026-04-26 09:59 28.35951 -81.27420 2511 ft 238 kts 135°
2026-04-26 09:59 28.35256 -81.26456 2824 ft 237 kts 122°
2026-04-26 09:59 28.34486 -81.24058 3507 ft 258 kts 104°
2026-04-26 09:59 28.34103 -81.22033 4037 ft 263 kts 102°
2026-04-26 10:00 28.33748 -81.19988 4519 ft 265 kts 102°
2026-04-26 10:00 28.33399 -81.17946 4991 ft 267 kts 102°
2026-04-26 10:00 28.33162 -81.16556 5307 ft 270 kts 102°
2026-04-26 10:00 28.32685 -81.13764 5938 ft 274 kts 102°
2026-04-26 10:01 28.32443 -81.12345 6249 ft 276 kts 102°
2026-04-26 10:01 28.32078 -81.10211 6718 ft 279 kts 102°
2026-04-26 10:01 28.31583 -81.07310 7353 ft 283 kts 102°
2026-04-26 10:01 28.31210 -81.05132 7818 ft 285 kts 102°
2026-04-26 10:02 28.30829 -81.02911 8290 ft 288 kts 102°
2026-04-26 10:02 28.30574 -81.01422 8603 ft 290 kts 102°
2026-04-26 10:02 28.30057 -80.98412 9234 ft 293 kts 102°
2026-04-26 10:02 28.29665 -80.96127 9709 ft 296 kts 102°
2026-04-26 10:03 28.29272 -80.93842 10181 ft 298 kts 102°
2026-04-26 10:03 28.28051 -80.86849 11822 ft 343 kts 104°
2026-04-26 10:04 28.27260 -80.84261 12365 ft 348 kts 112°
2026-04-26 10:04 28.26345 -80.81699 12891 ft 351 kts 113°
2026-04-26 10:04 28.25421 -80.79127 13389 ft 354 kts 113°
2026-04-26 10:04 28.24499 -80.76562 13876 ft 358 kts 113°
2026-04-26 10:05 28.23551 -80.73926 14369 ft 362 kts 113°
2026-04-26 10:05 28.22545 -80.71330 14835 ft 364 kts 121°
2026-04-26 10:05 28.21000 -80.69054 15278 ft 363 kts 137°
2026-04-26 10:05 28.19042 -80.67265 15733 ft 363 kts 152°
2026-04-26 10:06 28.16768 -80.66136 16207 ft 360 kts 164°
2026-04-26 10:06 28.14363 -80.65288 16717 ft 362 kts 167°
2026-04-26 10:06 28.11966 -80.64525 17207 ft 364 kts 168°
2026-04-26 10:06 28.09509 -80.63772 17704 ft 367 kts 169°
2026-04-26 10:07 28.07050 -80.63028 18194 ft 370 kts 169°
2026-04-26 10:07 28.04568 -80.62282 18687 ft 372 kts 169°
2026-04-26 10:07 28.02045 -80.61526 19015 ft 377 kts 169°
2026-04-26 10:07 27.99526 -80.60773 18953 ft 378 kts 169°
2026-04-26 10:08 27.96991 -80.60014 18957 ft 382 kts 169°
2026-04-26 10:08 27.94388 -80.59238 19005 ft 398 kts 169°
2026-04-26 10:08 27.91670 -80.58424 19011 ft 403 kts 169°
2026-04-26 10:08 27.88984 -80.57620 18969 ft 401 kts 169°
2026-04-26 10:09 27.86325 -80.56825 18960 ft 399 kts 169°
2026-04-26 10:09 27.83631 -80.56020 18938 ft 398 kts 169°
2026-04-26 10:09 27.80975 -80.55228 18939 ft 399 kts 169°
2026-04-26 10:09 27.78306 -80.54431 18942 ft 399 kts 169°
2026-04-26 10:10 27.75615 -80.53629 18937 ft 399 kts 169°
2026-04-26 10:10 27.72949 -80.52834 18940 ft 399 kts 169°
2026-04-26 10:10 27.70258 -80.52032 18939 ft 399 kts 169°
2026-04-26 10:10 27.67603 -80.51242 18939 ft 399 kts 169°
2026-04-26 10:11 27.64935 -80.50356 18927 ft 401 kts 165°
2026-04-26 10:11 27.62320 -80.49323 18951 ft 401 kts 165°
2026-04-26 10:11 27.59699 -80.48283 18942 ft 401 kts 165°
2026-04-26 10:11 27.57066 -80.47239 18944 ft 401 kts 165°
2026-04-26 10:12 27.54429 -80.46194 18947 ft 401 kts 165°
2026-04-26 10:12 27.51831 -80.45164 18947 ft 401 kts 165°
2026-04-26 10:12 27.49193 -80.44120 18949 ft 401 kts 165°
2026-04-26 10:12 27.46576 -80.43084 18948 ft 401 kts 165°
2026-04-26 10:13 27.43958 -80.42049 18948 ft 401 kts 165°
2026-04-26 10:13 27.41321 -80.41006 18948 ft 401 kts 165°
2026-04-26 10:13 27.38694 -80.39968 18948 ft 401 kts 165°
2026-04-26 10:13 27.36080 -80.38935 18949 ft 401 kts 165°
2026-04-26 10:14 27.33452 -80.37897 18949 ft 401 kts 165°
2026-04-26 10:14 27.30846 -80.36869 18987 ft 401 kts 165°
2026-04-26 10:14 27.28208 -80.35829 19014 ft 402 kts 165°
2026-04-26 10:14 27.25574 -80.34792 18815 ft 404 kts 165°
2026-04-26 10:15 27.22921 -80.33747 18545 ft 401 kts 165°
2026-04-26 10:15 27.20310 -80.32725 18286 ft 398 kts 165°
2026-04-26 10:15 27.17713 -80.31714 18029 ft 396 kts 165°
2026-04-26 10:15 27.15132 -80.30711 17775 ft 394 kts 165°
2026-04-26 10:16 27.12538 -80.29703 17520 ft 393 kts 165°
2026-04-26 10:16 27.09954 -80.28700 17265 ft 392 kts 165°
2026-04-26 10:16 27.07425 -80.27718 17014 ft 390 kts 165°
2026-04-26 10:16 27.04859 -80.26723 16760 ft 389 kts 164°
2026-04-26 10:17 27.02311 -80.25736 16504 ft 387 kts 164°
2026-04-26 10:17 26.99789 -80.24760 16361 ft 385 kts 164°
2026-04-26 10:17 26.97278 -80.23788 16229 ft 380 kts 163°
2026-04-26 10:17 26.94806 -80.22829 16054 ft 366 kts 163°
2026-04-26 10:18 26.92448 -80.21916 15871 ft 355 kts 163°
2026-04-26 10:18 26.90152 -80.21029 15685 ft 353 kts 163°
2026-04-26 10:18 26.87819 -80.20128 15533 ft 356 kts 162°
2026-04-26 10:18 26.85464 -80.19232 15419 ft 357 kts 163°
2026-04-26 10:19 26.83126 -80.18360 15294 ft 357 kts 163°
2026-04-26 10:19 26.80758 -80.17481 15166 ft 356 kts 163°
2026-04-26 10:19 26.78433 -80.16618 15041 ft 355 kts 163°
2026-04-26 10:19 26.76094 -80.15750 14999 ft 353 kts 163°
2026-04-26 10:20 26.73766 -80.14887 14991 ft 354 kts 163°
2026-04-26 10:20 26.72221 -80.14314 14992 ft 354 kts 163°
2026-04-26 10:20 26.69037 -80.13351 15000 ft 354 kts 168°
2026-04-26 10:20 26.66633 -80.12696 14658 ft 359 kts 168°
2026-04-26 10:21 26.64229 -80.12045 14282 ft 354 kts 168°
2026-04-26 10:21 26.61876 -80.11407 13897 ft 349 kts 167°
2026-04-26 10:21 26.59544 -80.10788 13515 ft 344 kts 168°
2026-04-26 10:21 26.57221 -80.10204 13138 ft 342 kts 168°
2026-04-26 10:22 26.54911 -80.09625 12968 ft 336 kts 168°
2026-04-26 10:22 26.52647 -80.09058 13014 ft 339 kts 168°
2026-04-26 10:22 26.50353 -80.08485 13002 ft 342 kts 168°
2026-04-26 10:22 26.48004 -80.07898 12999 ft 343 kts 168°
2026-04-26 10:23 26.45702 -80.07346 12998 ft 342 kts 170°
2026-04-26 10:23 26.43356 -80.06844 13000 ft 342 kts 170°
2026-04-26 10:23 26.41028 -80.06348 12999 ft 342 kts 170°
2026-04-26 10:23 26.38708 -80.05797 12797 ft 346 kts 167°
2026-04-26 10:24 26.36385 -80.05166 12384 ft 340 kts 167°
2026-04-26 10:24 26.34128 -80.04549 11978 ft 330 kts 167°
2026-04-26 10:24 26.31939 -80.03949 11486 ft 317 kts 167°
2026-04-26 10:24 26.29860 -80.03380 11006 ft 302 kts 167°
2026-04-26 10:25 26.27893 -80.02840 11017 ft 284 kts 167°
2026-04-26 10:25 26.25931 -80.02432 11055 ft 293 kts 178°
2026-04-26 10:25 26.23891 -80.02645 10853 ft 297 kts 189°
2026-04-26 10:25 26.21859 -80.03036 10532 ft 296 kts 191°
2026-04-26 10:26 26.19878 -80.03454 10184 ft 293 kts 192°
2026-04-26 10:26 26.17897 -80.03897 9805 ft 291 kts 192°
2026-04-26 10:26 26.15923 -80.04347 9424 ft 288 kts 192°
2026-04-26 10:26 26.13973 -80.04793 9046 ft 285 kts 192°
2026-04-26 10:27 26.12063 -80.05229 8646 ft 277 kts 192°
2026-04-26 10:27 26.10205 -80.05653 8263 ft 273 kts 192°
2026-04-26 10:27 26.08359 -80.06074 7996 ft 269 kts 192°
2026-04-26 10:27 26.06549 -80.06504 7997 ft 270 kts 193°
2026-04-26 10:28 26.04694 -80.06982 7985 ft 273 kts 193°
2026-04-26 10:28 26.02866 -80.07457 7985 ft 273 kts 193°
2026-04-26 10:28 26.01016 -80.07938 7984 ft 273 kts 194°
2026-04-26 10:28 25.99154 -80.08421 7984 ft 273 kts 194°
2026-04-26 10:29 25.97322 -80.08897 7985 ft 273 kts 194°
2026-04-26 10:29 25.95454 -80.09383 7986 ft 273 kts 194°
2026-04-26 10:29 25.93611 -80.09861 7987 ft 273 kts 194°
2026-04-26 10:29 25.91831 -80.10532 7978 ft 272 kts 205°
2026-04-26 10:30 25.90139 -80.11452 7991 ft 273 kts 207°
2026-04-26 10:30 25.88456 -80.12417 7990 ft 272 kts 208°
2026-04-26 10:30 25.86776 -80.13387 7985 ft 272 kts 208°
2026-04-26 10:30 25.85101 -80.14355 7987 ft 272 kts 208°
2026-04-26 10:31 25.83424 -80.15324 7986 ft 273 kts 208°
2026-04-26 10:31 25.81748 -80.16291 7985 ft 273 kts 208°
2026-04-26 10:31 25.80062 -80.17265 7984 ft 273 kts 208°
2026-04-26 10:31 25.78388 -80.18230 7983 ft 273 kts 208°
2026-04-26 10:32 25.76696 -80.19207 7982 ft 272 kts 208°
2026-04-26 10:32 25.75031 -80.20167 7981 ft 272 kts 208°
2026-04-26 10:32 25.73515 -80.21420 7850 ft 274 kts 226°
2026-04-26 10:32 25.72345 -80.23081 7434 ft 273 kts 242°
2026-04-26 10:33 25.71765 -80.25040 7062 ft 267 kts 259°
2026-04-26 10:33 25.71381 -80.27039 6695 ft 265 kts 260°
2026-04-26 10:33 25.71204 -80.29070 6317 ft 263 kts 266°
2026-04-26 10:33 25.71097 -80.31078 5945 ft 262 kts 267°
2026-04-26 10:34 25.71000 -80.33092 5569 ft 261 kts 267°
2026-04-26 10:34 25.70905 -80.35106 5191 ft 260 kts 267°
2026-04-26 10:34 25.70810 -80.37083 4984 ft 252 kts 267°
2026-04-26 10:34 25.70720 -80.38968 4960 ft 244 kts 267°
2026-04-26 10:35 25.70631 -80.40853 5027 ft 245 kts 267°
2026-04-26 10:35 25.70538 -80.42721 4982 ft 239 kts 267°
2026-04-26 10:35 25.70429 -80.44539 4981 ft 235 kts 266°
2026-04-26 10:35 25.70321 -80.46350 4981 ft 236 kts 266°
2026-04-26 10:36 25.70213 -80.48172 4854 ft 238 kts 266°
2026-04-26 10:36 25.70098 -80.50009 4729 ft 238 kts 267°
2026-04-26 10:36 25.69983 -80.51845 4602 ft 237 kts 266°
2026-04-26 10:36 25.69870 -80.53653 4477 ft 236 kts 267°
2026-04-26 10:37 25.69757 -80.55486 4351 ft 236 kts 267°
2026-04-26 10:37 25.69814 -80.57272 4182 ft 235 kts 283°
2026-04-26 10:37 25.70519 -80.58882 4020 ft 233 kts 308°
2026-04-26 10:37 25.71739 -80.59973 3980 ft 219 kts 334°
2026-04-26 10:38 25.73169 -80.60326 3943 ft 207 kts
2026-04-26 10:38 25.74512 -80.59911 3954 ft 201 kts 30°
2026-04-26 10:38 25.75494 -80.58845 3965 ft 198 kts 59°
2026-04-26 10:38 25.75927 -80.57425 3986 ft 194 kts 82°
2026-04-26 10:39 25.76178 -80.55952 3978 ft 192 kts 73°
2026-04-26 10:39 25.76637 -80.54586 3999 ft 192 kts 66°
2026-04-26 10:39 25.77144 -80.53168 3907 ft 201 kts 72°
2026-04-26 10:39 25.77470 -80.51701 3700 ft 197 kts 79°
2026-04-26 10:40 25.77675 -80.50205 3447 ft 195 kts 83°
2026-04-26 10:40 25.77811 -80.48711 3195 ft 196 kts 85°
2026-04-26 10:40 25.77918 -80.47186 2941 ft 198 kts 87°
2026-04-26 10:40 25.77997 -80.45659 2677 ft 198 kts 88°
2026-04-26 10:41 25.78066 -80.44154 2412 ft 198 kts 88°
2026-04-26 10:41 25.78134 -80.42615 2132 ft 197 kts 88°
2026-04-26 10:41 25.78198 -80.41122 1843 ft 192 kts 88°
2026-04-26 10:41 25.78261 -80.39679 1566 ft 184 kts 88°
2026-04-26 10:42 25.78320 -80.38273 1285 ft 177 kts 88°
2026-04-26 10:42 25.78377 -80.36945 1035 ft 171 kts 88°
2026-04-26 10:42 25.78433 -80.35641 816 ft 163 kts 88°
2026-04-26 10:42 25.78485 -80.34418 598 ft 155 kts 88°
2026-04-26 10:43 25.78533 -80.33261 398 ft 148 kts 88°
2026-04-26 10:43 25.78581 -80.32137 223 ft 143 kts 88°
2026-04-26 10:43 25.78627 -80.31033 34 ft 141 kts 89°
2026-04-26 10:43 25.78666 -80.30004 13 ft 128 kts 88°
2026-04-26 10:44 25.78698 -80.29212 15 ft 74 kts 87°
2026-04-26 10:44 25.78719 -80.28818 15 ft 32 kts 85°
2026-04-26 10:44 25.78726 -80.28673 15 ft 9 kts 88°
2026-04-26 10:44 25.78727 -80.28644 15 ft 3 kts 87°
2026-04-26 10:45 25.78732 -80.28550 15 ft 20 kts 86°
2026-04-26 10:45 25.78842 -80.28400 15 ft 30 kts 49°
2026-04-26 10:45 25.78976 -80.28189 12 ft 33 kts 82°
2026-04-26 10:45 25.78946 -80.27934 12 ft 27 kts 100°
2026-04-26 10:46 25.78945 -80.27844 12 ft 1 kts 45°
2026-04-26 10:46 25.79000 -80.27819 12 ft 14 kts 18°
2026-04-26 10:46 25.79105 -80.27782 12 ft 5 kts 12°
2026-04-26 10:46 25.79137 -80.27778 12 ft 4 kts 12°
2026-04-26 10:47 25.79145 -80.27738 12 ft 7 kts 98°
2026-04-26 10:47 25.79141 -80.27709 12 ft 0 kts 98°